• In Portugal
  • List of Countries
  • For 7 days
  • Water Temperature
  • Satellite Maps
  • Weather Map
  • Weather Widgets
  • user-avatar
    Login

    Hourly Weather Olszyniec

    Today, 16 July, Monday

    Time Temperature Precipitation Wind Pressure Humidity
    00:00 +15°C° 0 mm 1 mps 720 mmHg 77%
    01:00 +14°C° 0 mm 1 mps 720 mmHg 74%
    02:00 +14°C° 0 mm 1 mps 720 mmHg 74%
    03:00 +14°C° 0 mm 1 mps 720 mmHg 74%
    04:00 +13°C° 0 mm 1 mps 720 mmHg 75%
    05:00 +15°C° 0 mm 1 mps 720 mmHg 71%
    06:00 +18°C° 0 mm 1 mps 720 mmHg 68%
    07:00 +20°C° 0 mm 1 mps 720 mmHg 65%
    08:00 +20°C° 0 mm 2 mps 720 mmHg 61%
    09:00 +23°C° 0 mm 2 mps 720 mmHg 57%
    10:00 +24°C° 0 mm 2 mps 720 mmHg 53%
    11:00 +25°C° 0 mm 2 mps 720 mmHg 50%
    12:00 +26°C° 0 mm 2 mps 719 mmHg 48%
    13:00 +26°C° 0 mm 2 mps 719 mmHg 46%
    14:00 +26°C° 0 mm 2 mps 719 mmHg 47%
    15:00 +26°C° 0 mm 2 mps 719 mmHg 49%
    16:00 +26°C° 0 mm 2 mps 718 mmHg 50%
    17:00 +24°C° 0 mm 2 mps 718 mmHg 56%
    18:00 +23°C° 0 mm 2 mps 718 mmHg 62%
    19:00 +22°C° 0 mm 1 mps 717 mmHg 68%
    20:00 +21°C° 0.2 mm 1 mps 717 mmHg 71%
    21:00 +19°C° 0.2 mm 1 mps 717 mmHg 73%
    22:00 +18°C° 0.2 mm 1 mps 717 mmHg 76%
    23:00 +16°C° 0.2 mm 1 mps 717 mmHg 79%

    Tomorrow, 17 July, Tuesday

    Time Temperature Precipitation Wind Pressure Humidity
    00:00 +16°C° 0.2 mm 1 mps 717 mmHg 82%
    01:00 +15°C° 0.2 mm 2 mps 717 mmHg 85%
    02:00 +15°C° 0 mm 2 mps 717 mmHg 86%
    03:00 +15°C° 0 mm 2 mps 717 mmHg 88%
    04:00 +15°C° 0 mm 2 mps 716 mmHg 89%
    05:00 +16°C° 0 mm 3 mps 717 mmHg 86%
    06:00 +17°C° 0 mm 3 mps 717 mmHg 84%
    07:00 +18°C° 0 mm 4 mps 717 mmHg 81%
    08:00 +19°C° 0.3 mm 4 mps 717 mmHg 80%
    09:00 +19°C° 0.3 mm 5 mps 717 mmHg 78%
    10:00 +20°C° 0.3 mm 5 mps 717 mmHg 77%
    11:00 +20°C° 0.5 mm 6 mps 717 mmHg 77%
    12:00 +20°C° 0.5 mm 6 mps 717 mmHg 77%
    13:00 +20°C° 0.5 mm 6 mps 717 mmHg 76%
    14:00 +19°C° 0.1 mm 6 mps 717 mmHg 77%
    15:00 +19°C° 0.1 mm 6 mps 717 mmHg 77%
    16:00 +19°C° 0.1 mm 6 mps 717 mmHg 77%
    17:00 +17°C° 0.1 mm 6 mps 717 mmHg 80%
    18:00 +16°C° 0.1 mm 5 mps 717 mmHg 83%
    19:00 +17°C° 0.1 mm 4 mps 717 mmHg 86%
    20:00 +15°C° 0 mm 4 mps 717 mmHg 88%
    21:00 +15°C° 0 mm 4 mps 717 mmHg 90%
    22:00 +14°C° 0 mm 4 mps 717 mmHg 92%
    23:00 +14°C° 0 mm 4 mps 717 mmHg 92%

    Day after tomorrow, 18 July, Wednesday

    Time Temperature Precipitation Wind Pressure Humidity
    00:00 +14°C° 0 mm 4 mps 717 mmHg 92%
    01:00 +14°C° 0 mm 4 mps 716 mmHg 93%
    02:00 +14°C° 0.1 mm 4 mps 717 mmHg 92%
    03:00 +14°C° 0.1 mm 4 mps 717 mmHg 92%
    04:00 +14°C° 0.1 mm 5 mps 717 mmHg 92%
    05:00 +15°C° 0.1 mm 5 mps 717 mmHg 89%
    06:00 +15°C° 0.1 mm 5 mps 717 mmHg 87%
    07:00 +16°C° 0.1 mm 5 mps 717 mmHg 85%
    08:00 +17°C° 0.5 mm 6 mps 717 mmHg 81%
    09:00 +19°C° 0.5 mm 6 mps 718 mmHg 77%
    10:00 +19°C° 0.5 mm 6 mps 718 mmHg 73%
    11:00 +20°C° 0.7 mm 6 mps 718 mmHg 72%
    12:00 +20°C° 0.7 mm 5 mps 718 mmHg 72%
    13:00 +21°C° 0.7 mm 5 mps 718 mmHg 72%
    14:00 +21°C° 0.5 mm 4 mps 718 mmHg 72%
    15:00 +21°C° 0.5 mm 4 mps 718 mmHg 72%
    16:00 +21°C° 0.5 mm 4 mps 718 mmHg 72%
    17:00 +20°C° 0.3 mm 4 mps 718 mmHg 75%
    18:00 +19°C° 0.3 mm 3 mps 718 mmHg 78%
    19:00 +19°C° 0.3 mm 3 mps 718 mmHg 81%
    20:00 +18°C° 0.1 mm 3 mps 718 mmHg 83%
    21:00 +18°C° 0.1 mm 3 mps 719 mmHg 85%
    22:00 +17°C° 0.1 mm 3 mps 719 mmHg 88%
    23:00 +17°C° 0 mm 3 mps 719 mmHg 89%

    19 July, Thursday

    Time Temperature Precipitation Wind Pressure Humidity
    00:00 +16°C° 0 mm 3 mps 719 mmHg 90%
    01:00 +16°C° 0 mm 3 mps 719 mmHg 91%
    02:00 +16°C° 0.1 mm 3 mps 719 mmHg 92%
    03:00 +14°C° 0.1 mm 3 mps 719 mmHg 92%
    04:00 +14°C° 0.1 mm 4 mps 719 mmHg 93%
    05:00 +15°C° 0.1 mm 4 mps 719 mmHg 91%
    06:00 +15°C° 0.1 mm 5 mps 719 mmHg 88%
    07:00 +16°C° 0.1 mm 5 mps 719 mmHg 86%
    08:00 +17°C° 0.3 mm 5 mps 719 mmHg 82%
    09:00 +17°C° 0.3 mm 5 mps 720 mmHg 79%
    10:00 +19°C° 0.3 mm 5 mps 720 mmHg 76%
    11:00 +20°C° 0.3 mm 5 mps 720 mmHg 72%
    12:00 +21°C° 0.3 mm 5 mps 720 mmHg 69%
    13:00 +21°C° 0.3 mm 5 mps 720 mmHg 65%
    14:00 +22°C° 0 mm 5 mps 720 mmHg 64%
    15:00 +22°C° 0 mm 4 mps 720 mmHg 62%
    16:00 +23°C° 0 mm 4 mps 720 mmHg 60%
    17:00 +22°C° 0 mm 4 mps 720 mmHg 66%
    18:00 +21°C° 0 mm 3 mps 720 mmHg 71%
    19:00 +20°C° 0 mm 2 mps 720 mmHg 77%
    20:00 +18°C° 0 mm 2 mps 720 mmHg 81%
    21:00 +17°C° 0 mm 2 mps 720 mmHg 85%
    22:00 +16°C° 0 mm 2 mps 720 mmHg 89%
    23:00 +15°C° 0 mm 2 mps 720 mmHg 89%

    20 July, Friday

    Time Temperature Precipitation Wind Pressure Humidity
    00:00 +15°C° 0 mm 2 mps 720 mmHg 90%
    01:00 +14°C° 0 mm 2 mps 720 mmHg 90%
    02:00 +14°C° 0 mm 2 mps 720 mmHg 90%
    03:00 +13°C° 0 mm 2 mps 720 mmHg 90%
    04:00 +13°C° 0 mm 2 mps 720 mmHg 89%
    05:00 +14°C° 0 mm 2 mps 720 mmHg 83%
    06:00 +16°C° 0 mm 2 mps 720 mmHg 76%
    07:00 +17°C° 0 mm 2 mps 720 mmHg 70%
    08:00 +19°C° 0 mm 2 mps 720 mmHg 62%
    09:00 +20°C° 0 mm 2 mps 720 mmHg 55%
    10:00 +23°C° 0 mm 2 mps 720 mmHg 47%
    11:00 +24°C° 0 mm 2 mps 720 mmHg 44%
    12:00 +24°C° 0 mm 2 mps 720 mmHg 41%
    13:00 +25°C° 0 mm 2 mps 720 mmHg 39%
    14:00 +25°C° 0 mm 2 mps 720 mmHg 39%
    15:00 +25°C° 0 mm 2 mps 719 mmHg 39%
    16:00 +25°C° 0 mm 2 mps 719 mmHg 39%
    17:00 +24°C° 0 mm 1 mps 719 mmHg 46%
    18:00 +23°C° 0 mm 1 mps 718 mmHg 52%
    19:00 +21°C° 0 mm 1 mps 718 mmHg 59%
    20:00 +20°C° 0 mm 1 mps 718 mmHg 61%
    21:00 +18°C° 0 mm 1 mps 718 mmHg 64%
    22:00 +16°C° 0 mm 1 mps 718 mmHg 66%
    23:00 +15°C° 0 mm 1 mps 718 mmHg 67%

    21 July, Saturday

    Time Temperature Precipitation Wind Pressure Humidity
    00:00 +15°C° 0 mm 1 mps 718 mmHg 68%
    01:00 +14°C° 0 mm 1 mps 718 mmHg 69%
    02:00 +14°C° 0 mm 1 mps 718 mmHg 69%
    03:00 +14°C° 0 mm 1 mps 717 mmHg 69%
    04:00 +14°C° 0 mm 1 mps 717 mmHg 70%
    05:00 +15°C° 0 mm 1 mps 718 mmHg 66%
    06:00 +18°C° 0 mm 1 mps 718 mmHg 63%
    07:00 +18°C° 0 mm 0 mps 718 mmHg 59%
    08:00 +21°C° 0 mm 1 mps 718 mmHg 56%
    09:00 +23°C° 0 mm 1 mps 718 mmHg 52%
    10:00 +24°C° 0 mm 1 mps 718 mmHg 49%
    11:00 +24°C° 0 mm 1 mps 718 mmHg 48%
    12:00 +25°C° 0 mm 1 mps 718 mmHg 47%
    13:00 +25°C° 0 mm 1 mps 718 mmHg 45%
    14:00 +25°C° 0 mm 1 mps 718 mmHg 46%
    15:00 +25°C° 0 mm 1 mps 717 mmHg 47%
    16:00 +25°C° 0 mm 1 mps 717 mmHg 48%
    17:00 +24°C° 0 mm 1 mps 717 mmHg 54%
    18:00 +23°C° 0 mm 1 mps 717 mmHg 60%
    19:00 +21°C° 0 mm 2 mps 717 mmHg 67%
    20:00 +20°C° 0 mm 1 mps 717 mmHg 71%
    21:00 +19°C° 0 mm 1 mps 717 mmHg 75%
    22:00 +16°C° 0 mm 1 mps 717 mmHg 79%
    23:00 +16°C° 0 mm 1 mps 717 mmHg 80%
    Show more